Location: Abundant Grace Fellowship
(35.0349°N, 90.0924°W)
Time: 08:27:24
(UTC+00:00)

Cosmos 1484 Rocket - Pass Details

Date: 18 January 2026
Orbit: 439 x 467 km, 97.6° (Epoch: 10 February)

Event Time Altitude Azimuth Distance (km) Brightness Sun altitude
Rises 11:23:19 0° 22° (NNE) 2,459 6.3 -21.0°
Reaches altitude 10° 11:25:28 10° 32° (NNE) 1,588 5.4 -20.6°
Maximum altitude 11:28:36 34° 99° (E) 772 4.2 -20.0°
Drops below altitude 10° 11:31:45 10° 165° (SSE) 1,593 5.5 -19.3°
Sets 11:33:54 0° 175° (S) 2,468 6.4 -18.9°
